www.pogodaiklimat.ru

Погода и климат >> Архив погоды >> Россия >> Красноярский край >> Шалинское


ПОГОДА в Шалинском

  • Прогноз погоды в Шалинском
  • Монитор погоды в Шалинском

АРХИВ ПОГОДЫ в Шалинском

Время (UTC), дата Ветер
(напр.,м/с)
 
Видим.   Явления Облачность Т
(С)
Тd
(С)
f
(%)
Тe
(С)
Тes
(С)
Комфортность P
(гПа)
Po
(гПа)
Тmin
(С)
Tmax
(С)
R
(мм)
R24
(мм)
S
(см)
15 12.08 З 2 50 км {ливн. осадки} 4/0
[Ac trans]
+11.9 +11.6 98 +11 +11 1012.3 965.4
18 12.08 З 3 50 км {ливн. осадки} 9/4 600 м
[Cb cap Ac trans]
+11.1 +10.7 97 +9 +9 1011.7 964.7
21 12.08 З 2 50 км 8/8 1000 м
[Sc]
+10.4 +10.0 97 +9 +9 1011.1 964.1
00 13.08 З 2 50 км 9/9 1000 м
[Sc]
+10.5 +10.1 97 +9 +9 1011.2 964.1 +9.2 0.0
03 13.08 З 3 50 км 9/3 1000 м
[Cu med, cong Ac trans Ci fib]
+14.1 +8.3 68 +13 +16 1010.4 963.9
06 13.08 ЮЗ 5 50 км 9/8 600 м
[Cb cap Ac trans Ci fib]
+16.9 +7.1 52 +16 +17 1008.8 962.9
09 13.08 З 4 50 км 9/9 600 м
[Cb cap Ac trans Ci fib]
+16.9 +7.8 55 +16 +17 1008.7 962.7
12 13.08 З 2 50 км 9/4 1000 м
[Cu med, cong Ac trans Ci fib]
+16.3 +10.2 67 +16 +17 1009.2 963.2 +17.4
15 13.08 С 1 50 км 10/10 600 м
[Cb cap]
+12.9 +11.3 90 +13 +13 1010.8 964.2
18 13.08 штиль 0 50 км 10/10 600 м
[Cb cap]
+12.1 +11.0 93 +11 +11 1010.6 963.8
21 13.08 штиль 0 50 км 10/10 600 м
[Cb cap]
+11.5 +11.2 98 +11 +11 1010.8 964.0
00 14.08 С 1 50 км 10/10 600 м
[Cb cap]
+11.6 +11.3 98 +11 +11 1011.7 964.8 +11.4
03 14.08 С 2 50 км {ливн. осадки} 10/10 600 м
[Cb cap]
+12.8 +10.9 88 +12 +12 1012.5 965.8 +11.1
06 14.08 СВ 2 50 км {ливн. осадки} 9/9 600 м
[Cb cap]
+14.5 +10.6 77 +14 +15 1013.2 966.7
09 14.08 В 2 50 км 9/9 600 м
[Cb cap]
+15.0 +10.7 75 +15 +15 1014.0 967.5
12 14.08 В 3 50 км 3/3 1000 м
[Cu med, cong]
+15.1 +10.8 75 +14 +15 1013.9 967.5 +16.4 0.0
15 14.08 В 2 50 км 3/0
[Ac trans Ci fib]
+11.6 +10.5 93 +10 +10 1015.3 968.2
18 14.08 С 1 50 км 3/1 1000 м
[Cu med, cong Ci fib]
+9.6 +9.3 98 +9 +9 1015.2 967.8
21 14.08 ЮЗ 1 50 км {туман} 9/9 1000 м
[Sc]
+8.7 +8.5 99 +8 +8 1014.4 966.9
00 15.08 В 2 50 км {туман} 9/8 600 м
[Cb cap Ci fib]
+10.1 +9.8 98 +8 +9 1014.4 967.1 +8.0
03 15.08 ЮВ 1 50 км 9/8 1000 м
[Cu med, cong Ac trans Ci fib]
+13.5 +10.4 82 +14 +15 1013.1 966.5
06 15.08 В 2 50 км 9/0
[Ac trans Ci fib]
+18.1 +10.8 62 +19 +27 1011.5 965.7
09 15.08 В 3 50 км 3/1 1000 м
[Cu med, cong Ci fib]
+20.3 +10.9 55 +22 +27 комфорт 1010.5 965.0
12 15.08 ЮВ 1 50 км 9/3 600 м
[Cb cap Ac trans Ci fib]
+19.1 +11.7 62 +21 +21 комфорт 1010.9 965.2 +20.4
15 15.08 штиль 0 50 км 4/0
[Ac trans Ci fib]
+13.2 +12.8 97 +13 +13 1011.4 964.8
18 15.08 штиль 0 50 км 3/0
[Ci fib]
+10.6 +10.3 98 +10 +10 1011.9 964.8
21 15.08 З 1 50 км 6/0
[Ci fib]
+8.0 +7.8 99 +7 +7 1011.7 964.2
00 16.08 штиль 0 500 м туман ясно +8.0 +7.7 98 +7 +8 1010.7 963.2 +7.0
03 16.08 СВ 3 50 км {туман} 9/6 600 м
[Cu med, cong Ci fib]
+15.3 +11.9 80 +15 +17 1009.1 962.9
06 16.08 В 4 50 км {туман} 6/4 600 м
[Cu med, cong Ci fib]
+20.9 +13.1 61 +24 +28 комфорт 1007.0 961.8
09 16.08 В 4 50 км 8/8 600 м
[Cu med, cong]
+22.4 +12.1 52 +25 +26 комфорт 1006.1 961.2
12 16.08 СВ 3
{10}
50 км 9/8 600 м
[Cu med, cong Ci fib]
+20.7 +11.1 54 +23 +23 комфорт 1006.5 961.3 +22.8
15 16.08 штиль 0 50 км 9/4 1000 м
[Cu med, cong Ac lent Ci fib]
+16.9 +11.8 72 +17 +17 1007.7 961.8
18 16.08 С 1 50 км 9/6 600 м
[Cb cap Ac trans Ci fib]
+14.8 +12.0 83 +15 +15 1008.4 962.2
21 16.08 штиль 0 50 км 9/3 600 м
[Cb cap Ci fib]
+11.9 +11.5 97 +11 +11 1009.3 962.6
00 17.08 З 1 50 км туман поземный 9/4 600 м
[Cb cap Ci fib]
+12.0 +11.7 98 +12 +12 1010.4 963.6 +9.8
03 17.08 С 2 10 км дым 8/3 1000 м
[Cu med, cong Ci fib]
+17.6 +13.9 79 +18 +23 1010.5 964.7
06 17.08 СВ 3 10 км дым 9/6 1000 м
[Cu med, cong Ci fib]
+20.3 +13.1 63 +23 +26 комфорт 1010.3 964.9
09 17.08 СВ 3 10 км дым 8/4 600 м
[Cb cap Ci fib]
+22.1 +12.4 54 +25 +27 комфорт 1010.0 964.8
12 17.08 СЗ 1 10 км дым 8/0
[Ac trans Ci fib]
+19.1 +14.1 73 +21 +22 комфорт 1011.2 965.6 +22.8
15 17.08 З 2 10 км дым 9/9 1000 м
[Sc]
+14.7 +14.4 98 +14 +14 1012.7 966.3
18 17.08 ЮЗ 1 4000 м дым 8/0
[Ac trans]
+11.6 +11.3 98 +11 +11 1013.1 966.1
21 17.08 штиль 0 4000 м дым 8/0
[Ci fib]
+9.4 +9.1 98 +8 +8 1013.5 966.1
00 18.08 штиль 0 10 км слаб. ливневой дождь {туман} 9/8 600 м
[Cb cap Ac trans]
+10.1 +9.8 98 +9 +9 1014.1 966.8 +8.6 0.4
03 18.08 Ю 3 50 км {ливн. осадки} 8/1 1000 м
[Sc Ac trans Ci fib]
+15.5 +11.3 76 +15 +18 1012.8 966.5
06 18.08 В 2 50 км {ливн. осадки} 8/4 600 м
[Cb cap Ci fib]
+19.1 +12.6 66 +21 +27 комфорт 1011.4 965.7
09 18.08 В 2 50 км в посл. час ливневой снег {гроза} 9/5 600 м
[Cb cap Ac trans Ci fib]
+17.9 +11.9 68 +18 +20 1010.9 965.1
12 18.08 З 1 50 км {гроза, ливн. осадки} 8/4 600 м
[Cb cap Ac trans Ci fib]
+16.4 +12.0 75 +17 +17 1011.7 965.5 +19.7 0.0
15 18.08 СВ 1 50 км 9/0
[Ac lent Ci fib]
+10.4 +10.0 97 +10 +10 1013.9 966.7
18 18.08 З 2 50 км 9/0
[Ac trans Ci fib]
+9.2 +8.8 97 +7 +7 1014.3 966.9
21 18.08 ЮЗ 2 50 км 9/0
[Ci fib]
+6.7 +6.5 99 +4 +4 1015.2 967.3
00 19.08 Ю 1 50 км ясно +6.6 +6.4 99 +5 +6 1016.4 968.4 +6.0
03 19.08 СЗ 1 50 км 8/4 600 м
[Cu med, cong Ac trans Ci fib]
+17.5 +12.7 73 +19 +22 1015.0 968.9
06 19.08 С 2 10 км дым 9/8 600 м
[Cb cap Ci fib]
+20.3 +11.9 58 +23 +25 комфорт 1014.5 968.9
09 19.08 З 2 10 км дым 8/6 600 м
[Cb cap Ci fib]
+20.4 +10.5 53 +23 +25 комфорт 1014.3 968.6
12 19.08 ЮЗ 1 10 км дым 9/0
[Ci fib]
+19.1 +13.1 68 +21 +22 комфорт 1014.5 968.7 +21.4

 

Местоположение метеостанции Шалинское (Красноярский край, Россия): широта 55.72 долгота 93.75 высота над уровнем моря 399 м.

В архиве по умолчанию представлена погода в Шалинском за последнюю неделю. Архивные данные за месяц целиком и за предыдущие месяцы, начиная с января 2011 года, Вы можете получить, выбрав интересующий диапазон дат из раскрывающегося списка и нажав кнопку "Ввод!".


*Определитесь, кто Вы:
робот инопланетянин человек

Внимание! Время в таблицах - всемирное. Для получения местного времени необходимо прибавить поправку, которая равна 7 ч.

Смотрите также архив погоды в соседних городах и на ближайших метеорологических станциях:

Погода в Уяре (Красноярский край, Россия) (37 км)
Погода в Железногорске (Красноярский край, Россия) (61 км)
Погода в Роевом Ручье (Красноярский край, Россия) (69 км)
Погода в Анастасино (Красноярский край, Россия) (71 км)
Погода в Красноярске (Красноярский край, Россия) (71 км)
Погода в Минино (Красноярский край, Россия) (75 км)
Погода в Погорельском Бору (Красноярский край, Россия) (88 км)
Погода в Агинском (Красноярский край, Россия) (88 км)
Погода в Сухобузимском (Красноярский край, Россия) (92 км)
Погода в Емельяново (Красноярский край, Россия) (93 км)

Пояснения к столбцам:

Ветер - указаны скорость ветра в м/с - средняя за 10 мин, порывы в срок и между сроками (в фигурных скобках) и направление, откуда дует ветер: С - северный, СВ - северо-восточный, В - восточный, ЮВ - юго-восточный, Ю - южный, ЮЗ - юго-западный, З - западный, СЗ - северо-западный.
Видимость - горизонтальная дальность видимости в метрах или километрах. При видимости от 1 до 10 км при отсутствии осадков обычно наблюдается дымка, при ухудшении видимости до 1 км и менее - туман. В сухую погоду видимость может ухудшаться дымом, пылью или мглою.
Явления - указаны атмосферные явления, наблюдавшиеся в срок или в последний час перед сроком; фигурными скобками обозначены явления, наблюдавшиеся между сроками (за 1-3 часа до срока); квадратными скобками обозначены град или гололедные отложения с указанием их диаметра в мм.
Облачность - указаны через наклонную черту общая и нижняя облачность в баллах и высота нижней границы облаков в метрах; квадратными скобками обозначены формы облаков: Ci - перистые, Cs - перисто-слоистые, Cc - перисто-кучевые, Ac - высококучевые, As - высокослоистые, Sc - слоисто-кучевые, Ns - слоисто-дождевые, Cu - кучевые, Cb - кучево-дождевые. Подробнее классификацию облаков см. в Атласе облаков (PDF).
T - Температура воздуха - температура, измеренная на высоте 2 м над землей.
Td - Температура точки росы - температура, при понижении до которой содержащийся в воздухе водяной пар достигнет насыщения.
f - Относительная влажность воздуха - влажноcть воздуха, измеренная на высоте 2 м над землей.
Te - Эффективная температура - температура, которую ощущает одетый по сезону человек в тени. Характеристика душности погоды. При расчете учитывается влияние влажности воздуха и скорости ветра на теплоощущения человека.
Tes - Эффективная температура на солнце - температура, которую ощущает человек, с поправкой на солнечный нагрев. Характеристика знойности погоды. Зависит от высоты солнца над горизонтом, облачности и скорости ветра. Ночью, в пасмурную погоду, а также при ветре 12 м/с и более поправка равна нулю.
P - Атмосферное давление - приведенное к уровню моря атмосферное давление.
Po - Атмосферное давление - измеренное на уровне метеостанции атмосферное давление.
Tmin - Минимальная температура - минимум температуры воздуха на высоте 2 м над землей.
Tmax - Максимальная температура - максимум температуры воздуха на высоте 2 м над землей.
R - Количество осадков - Количество выпавших осадков за период времени, мм. При наведении курсора мыши на число - период времени, за который выпало указанное количество осадков.
R24 - Количество осадков - Количество выпавших осадков за 24 часа, мм.
S - Снежный покров - Высота снежного покрова, см. При наведении курсора мыши на число - состояние снежного покрова и степень покрытия местности в баллах.